Regional Weather Roundup
Issued by NWS

Home | Current Version | Previous Version | Graphics & Text | Print | Product List | Glossary On
Versions: 1 2 3 4 5 6 7 8 9 10 11 12 13 14 15 16 17 18 19 20 21 22 23 24 25 26 27 28 29 30 31 32 33 34 35 36 37 38 39 40 41 42 43 44 45 46 47 48 49 50
000
ASUS43 KFSD 181110
RWRSD

WEATHER ROUNDUP FOR SOUTH DAKOTA
NATIONAL WEATHER SERVICE SIOUX FALLS SD
500 AM CST THU JAN 18 2018

NOTE: "FAIR" INDICATES FEW OR NO CLOUDS BELOW 12,000 FEET WITH NO
SIGNIFICANT WEATHER AND/OR OBSTRUCTIONS TO VISIBILITY.


SDZ001>005-009-010-012>017-181200-
NORTHWEST AND NORTH CENTRAL SOUTH DAKOTA

CITY           SKY/WX    TMP DP  RH WIND       PRES   REMARKS
BUFFALO          N/A     38  22  52 W12       29.81F
FAITH            N/A     30  20  66 SW12      29.89F WCI  20
MOBRIDGE       CLEAR     21  17  84 SE7       29.86F WCI  12
$$

SDZ012>016-024>037-041>051-057-063-072>074-181200-
SOUTHWEST AND SOUTH CENTRAL SOUTH DAKOTA

CITY           SKY/WX    TMP DP  RH WIND       PRES   REMARKS
RAPID CTY ARPT MOCLDY    27  16  63 CALM      29.93F
PIERRE         CLEAR     25  21  85 SW7       29.92F WCI  17
CUSTER         PTCLDY    36   8  31 NW5       29.98F
ELLSWORTH AFB  MOCLDY    27  18  69 W5        29.91F WCI  22
PHILIP         MOCLDY    25  21  85 W10       29.93F WCI  15
PINE RIDGE     MOCLDY    22  18  85 W7        29.99F WCI  13
SPEARFISH        N/A     41  14  33 CALM      29.93F
WINNER         FAIR      33  22  63 SW13      29.94F WCI  24
$$

SDZ004>011-016>023-039-040-181200-
NORTHEAST SOUTH DAKOTA

CITY           SKY/WX    TMP DP  RH WIND       PRES   REMARKS
ABERDEEN       CLEAR     22  19  89 S9        29.90F WCI  12
WATERTOWN      CLOUDY    19  16  88 S10       29.91F WCI   7
BROOKINGS      CLOUDY    15  13  91 S5        29.96F WCI   8
SISSETON         N/A     38  22  52 W24G33    29.83F
$$

SDZ017-020-022-023-036>040-048>070-181200-
SOUTHEAST SOUTH DAKOTA

CITY           SKY/WX    TMP DP  RH WIND       PRES   REMARKS
SIOUX FALLS    CLOUDY    19  16  88 CALM      29.99F
HURON          PTCLDY    15  13  91 SE6       29.96F WCI   6
CHAMBERLAIN    MOCLDY    27  23  85 S8        29.95F WCI  18
MITCHELL       PTCLDY    18  16  92 CALM      29.98F
YANKTON        CLOUDY    17  15  92 NE5       30.03F WCI  10
$$

ABBREVIATIONS USED IN REMARKS
   TC - TEMPERATURE IN CELSIUS
  WCI - WIND CHILL INDEX
   HX - HEAT INDEX
  VSB - VISIBILITY




USA.gov is the U.S. government's official web portal to all federal, state and local government web resources and services.